ICE454 BIKF-EGLL

Flight info

Callsign ICE454
Flight time N/A
Altitude 36999
Route OSKUM3A OSKUM DCT RATSU/N0459F350 DCT BARKU DCT ORSUM DCT GOW DCT ELBUS DCT NAVSO DCT AKOMU DCT VAMEB DCT NUGRA
Aircraft B38M/M-SDE1FGHILORVWXY/HB1

Departure

Time N/A
Airport Keflavik International Airport (BIKF)

Arrival

Time 2026-05-06 17:50
Airport London Heathrow Airport (EGLL)
Time Latitude Longitude Altitude Speed Heading
2026-05-06 17:16 54.25679 -3.00147 37028 ft 474 kts 155°
2026-05-06 17:16 54.22705 -2.97708 37022 ft 474 kts 155°
2026-05-06 17:17 54.16747 -2.92923 37016 ft 472 kts 158°
2026-05-06 17:17 54.10706 -2.88528 37015 ft 472 kts 158°
2026-05-06 17:18 54.04715 -2.84128 37016 ft 472 kts 158°
2026-05-06 17:18 53.98619 -2.80018 37014 ft 470 kts 164°
2026-05-06 17:19 53.92378 -2.76694 37008 ft 470 kts 164°
2026-05-06 17:19 53.86142 -2.73396 37009 ft 469 kts 164°
2026-05-06 17:20 53.79983 -2.70150 37009 ft 461 kts 164°
2026-05-06 17:20 53.73861 -2.66933 37009 ft 461 kts 164°
2026-05-06 17:21 53.67749 -2.63730 37014 ft 456 kts 164°
2026-05-06 17:21 53.61710 -2.60576 37010 ft 453 kts 164°
2026-05-06 17:22 53.55680 -2.57436 37014 ft 453 kts 164°
2026-05-06 17:22 53.49665 -2.54313 37008 ft 452 kts 164°
2026-05-06 17:23 53.43651 -2.51200 37020 ft 452 kts 164°
2026-05-06 17:23 53.37632 -2.48093 37019 ft 452 kts 164°
2026-05-06 17:24 53.31616 -2.44997 37018 ft 452 kts 164°
2026-05-06 17:24 53.25599 -2.41909 37020 ft 452 kts 164°
2026-05-06 17:25 53.19618 -2.38850 37014 ft 452 kts 164°
2026-05-06 17:25 53.13608 -2.35784 37017 ft 451 kts 164°
2026-05-06 17:26 53.07600 -2.32727 37017 ft 451 kts 164°
2026-05-06 17:26 53.01757 -2.28981 36997 ft 452 kts 148°
2026-05-06 17:27 52.96420 -2.23401 37022 ft 454 kts 149°
2026-05-06 17:27 52.91056 -2.17866 37007 ft 454 kts 149°
2026-05-06 17:28 52.85695 -2.12277 37015 ft 459 kts 149°
2026-05-06 17:28 52.80287 -2.06644 36928 ft 456 kts 149°
2026-05-06 17:28 52.77608 -2.03859 36256 ft 456 kts 149°
2026-05-06 17:29 52.74911 -2.01060 35372 ft 461 kts 149°
2026-05-06 17:29 52.72177 -1.98226 34538 ft 465 kts 149°
2026-05-06 17:29 52.69429 -1.95384 33796 ft 466 kts 149°
2026-05-06 17:29 52.66683 -1.92546 32983 ft 466 kts 149°
2026-05-06 17:30 52.63944 -1.89721 32191 ft 465 kts 150°
2026-05-06 17:30 52.61193 -1.86887 31425 ft 465 kts 150°
2026-05-06 17:30 52.58453 -1.84069 30614 ft 466 kts 150°
2026-05-06 17:30 52.55754 -1.81297 29703 ft 468 kts 150°
2026-05-06 17:31 52.52986 -1.78458 28741 ft 469 kts 150°
2026-05-06 17:31 52.50223 -1.75627 27851 ft 468 kts 150°
2026-05-06 17:31 52.47456 -1.72799 26928 ft 469 kts 149°
2026-05-06 17:31 52.44685 -1.69969 25964 ft 470 kts 149°
2026-05-06 17:32 52.41897 -1.67127 24938 ft 473 kts 149°
2026-05-06 17:32 52.39091 -1.64272 23878 ft 477 kts 149°
2026-05-06 17:32 52.36281 -1.61416 23117 ft 472 kts 149°
2026-05-06 17:32 52.33506 -1.58601 22400 ft 466 kts 149°
2026-05-06 17:33 52.30773 -1.55832 21684 ft 460 kts 149°
2026-05-06 17:33 52.28086 -1.53112 20818 ft 450 kts 149°
2026-05-06 17:33 52.25460 -1.50457 20380 ft 436 kts 149°
2026-05-06 17:33 52.22888 -1.47860 20038 ft 432 kts 148°
2026-05-06 17:34 52.20500 -1.44921 19595 ft 427 kts 140°
2026-05-06 17:34 52.18259 -1.41826 19254 ft 418 kts 140°
2026-05-06 17:34 52.16059 -1.38779 18852 ft 412 kts 140°
2026-05-06 17:34 52.13897 -1.35772 18451 ft 406 kts 140°
2026-05-06 17:35 52.11763 -1.32802 18014 ft 401 kts 140°
2026-05-06 17:35 52.09658 -1.29875 17598 ft 395 kts 140°
2026-05-06 17:35 52.07609 -1.27028 17195 ft 390 kts 140°
2026-05-06 17:36 52.03557 -1.21408 16385 ft 374 kts 140°
2026-05-06 17:36 52.01608 -1.18709 16001 ft 363 kts 140°
2026-05-06 17:36 51.99709 -1.16083 15635 ft 354 kts 140°
2026-05-06 17:36 51.97873 -1.13546 15295 ft 340 kts 140°
2026-05-06 17:37 51.96104 -1.11105 14980 ft 327 kts 140°
2026-05-06 17:37 51.94399 -1.08754 14573 ft 318 kts 140°
2026-05-06 17:37 51.92736 -1.06463 14163 ft 310 kts 140°
2026-05-06 17:37 51.91109 -1.04224 13754 ft 303 kts 140°
2026-05-06 17:38 51.89517 -1.02035 13302 ft 297 kts 140°
2026-05-06 17:38 51.87958 -0.99894 12880 ft 291 kts 140°
2026-05-06 17:38 51.86433 -0.97801 12489 ft 284 kts 140°
2026-05-06 17:38 51.85111 -0.95486 12080 ft 282 kts 119°
2026-05-06 17:39 51.84240 -0.92648 11695 ft 283 kts 115°
2026-05-06 17:39 51.83354 -0.89799 11325 ft 284 kts 115°
2026-05-06 17:39 51.82468 -0.86942 10957 ft 285 kts 115°
2026-05-06 17:39 51.81583 -0.84066 10573 ft 287 kts 115°
2026-05-06 17:40 51.80692 -0.81166 10185 ft 289 kts 115°
2026-05-06 17:40 51.79795 -0.78246 9776 ft 291 kts 115°
2026-05-06 17:40 51.78618 -0.75594 9313 ft 294 kts 138°
2026-05-06 17:40 51.76853 -0.73962 8962 ft 292 kts 164°
2026-05-06 17:41 51.74877 -0.73555 8814 ft 281 kts 179°
2026-05-06 17:41 51.72953 -0.73522 8690 ft 273 kts 180°
2026-05-06 17:41 51.71066 -0.73508 8439 ft 270 kts 180°
2026-05-06 17:41 51.69201 -0.73503 8169 ft 267 kts 180°
2026-05-06 17:42 51.67369 -0.73512 7899 ft 265 kts 180°
2026-05-06 17:42 51.65507 -0.73537 7613 ft 263 kts 184°
2026-05-06 17:42 51.63766 -0.74291 7308 ft 259 kts 210°
2026-05-06 17:42 51.62252 -0.75822 7068 ft 255 kts 215°
2026-05-06 17:43 51.60799 -0.77394 6817 ft 248 kts 215°
2026-05-06 17:43 51.59405 -0.78929 6586 ft 237 kts 216°
2026-05-06 17:43 51.58070 -0.80408 6303 ft 230 kts 216°
2026-05-06 17:43 51.56785 -0.81838 5962 ft 225 kts 216°
2026-05-06 17:44 51.55526 -0.83216 5663 ft 214 kts 216°
2026-05-06 17:44 51.54315 -0.84525 5325 ft 206 kts 216°
2026-05-06 17:44 51.53062 -0.85584 5008 ft 205 kts 193°
2026-05-06 17:44 51.51660 -0.85402 4657 ft 205 kts 154°
2026-05-06 17:45 51.50574 -0.84007 4335 ft 199 kts 128°
2026-05-06 17:45 51.49705 -0.82294 4036 ft 197 kts 126°
2026-05-06 17:45 51.48852 -0.80561 3742 ft 198 kts 125°
2026-05-06 17:45 51.48003 -0.78837 3383 ft 201 kts 125°
2026-05-06 17:46 51.47328 -0.76900 3004 ft 196 kts 98°
2026-05-06 17:46 51.47415 -0.74856 2977 ft 181 kts 69°
2026-05-06 17:46 51.47670 -0.72867 2994 ft 184 kts 82°
2026-05-06 17:46 51.47690 -0.70799 2870 ft 186 kts 87°
2026-05-06 17:47 51.47675 -0.68724 2620 ft 185 kts 86°
2026-05-06 17:47 51.47681 -0.66669 2360 ft 183 kts 86°
2026-05-06 17:47 51.47686 -0.64705 2163 ft 168 kts 85°
2026-05-06 17:47 51.47695 -0.62860 1918 ft 163 kts 85°
2026-05-06 17:48 51.47701 -0.61054 1697 ft 161 kts 85°
2026-05-06 17:48 51.47707 -0.59284 1488 ft 160 kts 85°
2026-05-06 17:48 51.47714 -0.57516 1260 ft 152 kts 86°
2026-05-06 17:48 51.47718 -0.55881 1038 ft 142 kts 85°
2026-05-06 17:49 51.47733 -0.54307 825 ft 140 kts 83°
2026-05-06 17:49 51.47731 -0.52749 677 ft 139 kts 86°
2026-05-06 17:49 51.47732 -0.51193 465 ft 141 kts 84°
2026-05-06 17:49 51.47744 -0.49627 265 ft 140 kts 86°
2026-05-06 17:50 51.47750 -0.48142 99 ft 135 kts 86°
2026-05-06 17:50 51.47757 -0.46806 93 ft 100 kts 89°
2026-05-06 17:50 51.47759 -0.45916 88 ft 62 kts 90°
2026-05-06 17:50 51.47722 -0.45491 87 ft 23 kts 145°
2026-05-06 17:51 51.47596 -0.45465 88 ft 12 kts 178°
2026-05-06 17:51 51.47539 -0.45461 89 ft 13 kts 161°
2026-05-06 17:51 51.47511 -0.45334 89 ft 13 kts 99°
2026-05-06 17:51 51.47509 -0.45111 92 ft 16 kts 90°
2026-05-06 17:52 51.47509 -0.44983 92 ft 18 kts 89°
2026-05-06 17:52 51.47511 -0.44771 91 ft 20 kts 91°
2026-05-06 17:52 51.47490 -0.44580 94 ft 18 kts 133°
2026-05-06 17:52 51.47364 -0.44557 89 ft 20 kts 182°
2026-05-06 17:53 51.47195 -0.44557 89 ft 19 kts 180°
2026-05-06 17:53 51.47104 -0.44558 89 ft 20 kts 180°
2026-05-06 17:53 51.47039 -0.44578 91 ft 5 kts 251°
2026-05-06 17:53 51.47037 -0.44643 91 ft 1 kts 270°
2026-05-06 17:54 51.47037 -0.44665 92 ft 3 kts 269°
2026-05-06 17:54 51.47037 -0.44671 91 ft 0 kts 269°